DW9234 Weather Reports


time (UTC)temp
C
wind
direction
speed
KPH
gust
KPH
rain 1hr
cm
rain 24hr
cm
rain mn
cm
humidity
%
barometer
mb
20260507000003 20 74 0.0 1.6 0.00 0.00 0.20 66 1009.7
20260506235005 20 74 0.0 3.2 0.00 0.00 0.20 66 1009.5
20260506234004 20 74 0.0 3.2 0.00 0.00 0.20 65 1009.6
20260506233003 20 61 0.0 3.2 0.00 0.00 0.20 65 1009.6
20260506232004 20 355 3.2 4.8 0.00 0.00 0.20 64 1009.7
20260506230003 20 76 1.6 6.4 0.00 0.00 0.20 64 1009.3
20260506225004 20 231 0.0 3.2 0.00 0.00 0.20 64 1009.7
20260506224003 20 72 3.2 8.0 0.00 0.00 0.20 63 1009.6
20260506223004 20 114 0.0 9.7 0.00 0.00 0.20 63 1009.6
20260506222004 20 313 1.6 12.9 0.00 0.00 0.20 63 1009.7
20260506221003 20 20 6.4 6.4 0.00 0.00 0.20 63 1009.6
20260506220003 20 243 0.0 9.7 0.00 0.00 0.20 62 1009.3
20260506215005 20 74 6.4 6.4 0.00 0.00 0.20 62 1009.4
20260506214003 20 139 0.0 16.1 0.00 0.00 0.20 61 1009.3
20260506213004 20 332 1.6 14.5 0.00 0.00 0.20 61 1009.2
20260506212004 20 334 8.0 16.1 0.00 0.00 0.20 62 1009.2
20260506211003 20 28 4.8 8.0 0.00 0.00 0.20 62 1009.2
20260506210004 20 265 1.6 9.7 0.00 0.00 0.20 62 1009.1
20260506205004 20 39 6.4 12.9 0.00 0.00 0.20 62 1009.1
20260506203004 20 169 4.8 11.3 0.00 0.00 0.20 63 1009.0
20260506201003 19 327 1.6 9.7 0.00 0.00 0.20 65 1009.0
20260506200004 19 269 3.2 11.3 0.00 0.00 0.20 66 1008.9
20260506194003 18 97 0.0 14.5 0.00 0.00 0.20 67 1009.2
20260506193004 18 322 3.2 14.5 0.00 0.00 0.20 67 1009.4
20260506192003 18 80 3.2 16.1 0.00 0.00 0.20 68 1009.4
20260506191004 18 73 4.8 19.3 0.00 0.00 0.20 68 1009.7
20260506190005 18 62 4.8 11.3 0.00 0.00 0.20 69 1009.7
20260506185004 17 239 1.6 16.1 0.00 0.00 0.20 70 1009.8
20260506184003 17 314 4.8 11.3 0.00 0.00 0.20 71 1009.7
20260506183003 17 80 6.4 11.3 0.00 0.00 0.20 72 1009.7
20260506182004 17 90 6.4 12.9 0.00 0.00 0.20 73 1010.0
20260506181003 17 215 3.2 9.7 0.00 0.00 0.20 73 1010.0
20260506174003 17 77 6.4 14.5 0.00 0.00 0.20 75 1010.2
20260506173003 16 37 1.6 11.3 0.00 0.00 0.20 75 1010.1
20260506172004 16 85 1.6 11.3 0.00 0.00 0.20 74 1010.2
20260506171004 16 130 6.4 16.1 0.00 0.00 0.20 74 1010.5
20260506170004 16 84 1.6 8.0 0.00 0.00 0.20 74 1010.6
20260506165005 16 320 4.8 11.3 0.00 0.00 0.20 74 1010.4
20260506164004 17 106 8.0 14.5 0.00 0.00 0.20 74 1010.6
20260506163003 17 95 8.0 11.3 0.00 0.00 0.20 74 1010.6
20260506162003 16 61 3.2 12.9 0.00 0.00 0.20 73 1010.8
20260506160004 16 254 6.4 11.3 0.00 0.00 0.18 71 1010.8
20260506155004 17 57 1.6 12.9 0.00 0.00 0.13 71 1011.2
20260506154003 17 71 8.0 11.3 0.00 0.00 0.13 70 1011.5
20260506153003 17 215 6.4 9.7 0.00 0.00 0.10 68 1011.6
20260506152003 17 30 0.0 8.0 0.00 0.00 0.05 67 1011.8
20260506151004 17 140 4.8 16.1 0.00 0.00 0.05 66 1011.6
20260506150004 17 279 8.0 9.7 0.00 0.00 0.03 65 1011.4
20260506145004 18 85 3.2 8.0 0.00 0.00 0.03 63 1011.5
20260506144003 18 98 3.2 14.5 0.00 0.00 0.00 61 1011.6
20260506142004 19 52 3.2 14.5 0.00 0.00 0.00 57 1011.6
20260506135003 20 42 8.0 12.9 0.00 0.00 0.00 53 1011.5
20260506134003 20 79 9.7 17.7 0.00 0.00 0.00 54 1011.4
20260506133005 19 92 6.4 11.3 0.00 0.00 0.00 55 1011.3
20260506131004 18 355 6.4 12.9 0.00 0.00 0.00 56 1011.5
20260506130005 18 105 1.6 16.1 0.00 0.00 0.00 56 1011.5
20260506125003 18 69 3.2 17.7 0.00 0.00 0.00 57 1011.6
20260506124004 18 31 3.2 14.5 0.00 0.00 0.00 58 1011.7
20260506123003 18 295 3.2 17.7 0.00 0.00 0.00 57 1011.7
20260506122004 18 52 9.7 12.9 0.00 0.00 0.00 58 1011.6
20260506121004 18 100 8.0 17.7 0.00 0.00 0.00 58 1011.5
20260506120004 18 61 11.3 14.5 0.00 0.00 0.00 59 1011.4
20260506115003 18 68 1.6 12.9 0.00 0.00 0.00 59 1011.3
20260506114005 18 109 1.6 16.1 0.00 0.00 0.00 59 1011.3
20260506112003 18 60 0.0 19.3 0.00 0.00 0.00 59 1011.2
20260506105004 18 28 0.0 14.5 0.00 0.00 0.00 59 1011.1
20260506104004 18 322 3.2 12.9 0.00 0.00 0.00 59 1011.2
20260506103004 18 355 1.6 14.5 0.00 0.00 0.00 59 1011.2
20260506102004 18 61 11.3 14.5 0.00 0.00 0.00 59 1011.1
20260506101003 18 74 3.2 9.7 0.00 0.00 0.00 59 1011.0
20260506095005 18 107 3.2 12.9 0.00 0.00 0.00 59 1010.9
20260506094004 18 112 3.2 16.1 0.00 0.00 0.00 59 1011.0
20260506093005 18 324 1.6 11.3 0.00 0.00 0.00 58 1011.2
20260506092004 18 83 4.8 12.9 0.00 0.00 0.00 58 1011.1
20260506091004 18 132 1.6 14.5 0.00 0.00 0.00 58 1011.1
20260506090005 18 115 3.2 9.7 0.00 0.00 0.00 57 1011.1
20260506085004 19 60 8.0 9.7 0.00 0.00 0.00 57 1011.0
20260506083005 19 124 6.4 17.7 0.00 0.00 0.00 56 1011.1
20260506082004 19 126 3.2 12.9 0.00 0.00 0.00 56 1011.1
20260506081005 19 65 8.0 14.5 0.00 0.00 0.00 56 1011.2
20260506072005 18 59 1.6 9.7 0.00 0.00 0.00 58 1011.5
20260506071005 18 77 3.2 11.3 0.00 0.00 0.00 58 1011.5
20260506062005 18 94 1.6 9.7 0.00 0.00 0.00 58 1011.7
20260506061005 18 55 0.0 6.4 0.00 0.00 0.00 58 1011.8
20260506051005 19 92 3.2 11.3 0.00 0.00 0.00 54 1012.1
20260506045005 20 102 0.0 8.0 0.00 0.00 0.00 52 1012.3
20260506044004 20 94 8.0 8.0 0.00 0.00 0.00 51 1012.1
20260506043005 20 67 0.0 8.0 0.00 0.00 0.00 51 1012.2
20260506042005 20 93 0.0 9.7 0.00 0.00 0.00 50 1012.1
20260506041005 20 115 0.0 8.0 0.00 0.00 0.00 49 1012.1
20260506035005 20 109 1.6 6.4 0.00 0.00 0.00 48 1012.0
20260506034004 20 63 6.4 11.3 0.00 0.00 0.00 48 1011.8
20260506033005 20 95 3.2 9.7 0.00 0.00 0.00 47 1011.9
20260506032004 20 88 1.6 8.0 0.00 0.00 0.00 48 1011.9
20260506031004 20 10 3.2 12.9 0.00 0.00 0.00 47 1011.9
20260506030006 20 76 0.0 9.7 0.00 0.00 0.00 47 1012.0
20260506022005 21 263 1.6 11.3 0.00 0.00 0.00 45 1012.2
20260506020005 21 107 0.0 9.7 0.00 0.00 0.00 44 1012.2
20260506015005 22 113 3.2 8.0 0.00 0.00 0.00 43 1011.9
20260506014004 22 87 1.6 11.3 0.00 0.00 0.00 42 1011.8
20260506013005 22 128 3.2 11.3 0.00 0.00 0.00 41 1011.8
20260506012005 22 225 1.6 12.9 0.00 0.00 0.00 39 1011.6
20260506011004 22 105 3.2 9.7 0.00 0.00 0.00 38 1011.6
20260506010004 23 88 1.6 9.7 0.00 0.00 0.00 37 1011.4
20260506005006 23 61 1.6 9.7 0.00 0.00 0.00 37 1011.3
20260506003005 23 73 3.2 9.7 0.00 0.00 0.00 36 1011.2
20260506002005 23 136 3.2 11.3 0.00 0.00 0.00 34 1011.0
20260506001004 23 66 6.4 11.3 0.00 0.00 0.00 33 1010.8